Saginaw Browne, MI

4:38 AM EDT on May 24, 2017 (GMT -0400)
Saginaw County-Browne

Weather History for KHYX - March, 2013

Change the Weather History Date:

Monday, March 25, 2013

  Actual Average (KMBS) Record (KMBS)
Temperature  
Mean Temperature 36 °F -  
Max Temperature 39 °F 44 °F 70 °F (2012)
Min Temperature 32 °F 28 °F 12 °F (2011)
Degree Days  
Heating Degree Days 30    
Moisture  
Dew Point 30 °F    
Average Humidity 85    
Maximum Humidity 93    
Minimum Humidity 75    
Precipitation  
Precipitation 0.00 in - - ()
Sea Level Pressure  
Sea Level Pressure 29.75 in    
Wind  
Wind Speed 16 mph (NNE)    
Max Wind Speed 25 mph    
Max Gust Speed 33 mph    
Visibility 10 miles    
Events      
Averages and records for this station are not official NWS values.
T = Trace of Precipitation, MM = Missing Value Source: NWS Daily Summary

Daily Weather History Graph

Daily Weather History Graph

Search for Another Location

Airport or City:

Trip Planner

Search our weather history database for the weather conditions in past years. The results will help you decide how hot, cold, wet, or windy it might be!

Date:

Astronomy

Mar. 25, 2013 Rise Set
Actual Time 7:29 AM EDT 7:54 PM EDT
Civil Twilight 7:00 AM EDT 8:22 PM EDT
Nautical Twilight 6:26 AM EDT 8:56 PM EDT
Astronomical Twilight 5:52 AM EDT 9:31 PM EDT
Moon 6:23 PM EDT (3/25) 6:14 AM EDT (3/25)
Length of Visible Light 13h 22m
Length of Day
12h 24m
Waxing Gibbous, 96% of the Moon is Illuminated
Mar 25
Waxing Gibbous
Mar 27
Full
Apr 3
Last Quarter
Apr 10
New
Apr 18
First Quarter

Hourly Weather History & Observations

Time (EDT) Temp. Windchill Dew Point Humidity Pressure Visibility Wind Dir Wind Speed Gust Speed Precip Events Conditions
12:13 AM 32.0 °F 20.8 °F 28.4 °F 87% 29.71 in 10.0 mi NE 17.3 mph - N/A   Clear
12:33 AM 32.0 °F 21.6 °F 28.4 °F 87% 29.71 in 10.0 mi NE 15.0 mph - N/A   Scattered Clouds
12:53 AM 32.0 °F 22.1 °F 28.4 °F 87% 29.71 in 10.0 mi NE 13.8 mph - N/A   Scattered Clouds
1:13 AM 32.0 °F 22.1 °F 28.4 °F 87% 29.71 in 10.0 mi NE 13.8 mph - N/A   Clear
1:34 AM 32.0 °F 23.0 °F 28.4 °F 87% 29.71 in 10.0 mi NNE 11.5 mph - N/A   Clear
1:54 AM 32.0 °F 23.0 °F 28.4 °F 87% 29.70 in 10.0 mi NNE 11.5 mph - N/A   Clear
2:14 AM 32.0 °F 22.5 °F 28.4 °F 87% 29.70 in 10.0 mi NNE 12.7 mph - N/A   Scattered Clouds
2:34 AM 32.0 °F 22.5 °F 30.2 °F 93% 29.70 in 10.0 mi NE 12.7 mph - N/A   Overcast
2:54 AM 32.0 °F 21.6 °F 30.2 °F 93% 29.69 in 10.0 mi NNE 15.0 mph - N/A   Mostly Cloudy
3:14 AM 32.0 °F 21.6 °F 30.2 °F 93% 29.68 in 10.0 mi NNE 15.0 mph - N/A   Scattered Clouds
3:34 AM 32.0 °F 22.1 °F 30.2 °F 93% 29.68 in 10.0 mi NNE 13.8 mph - N/A   Scattered Clouds
3:55 AM 32.0 °F 22.1 °F 30.2 °F 93% 29.68 in 10.0 mi NNE 13.8 mph - N/A   Clear
4:15 AM 32.0 °F 22.1 °F 30.2 °F 93% 29.67 in 10.0 mi NNE 13.8 mph - N/A   Clear
4:35 AM 32.0 °F 22.5 °F 30.2 °F 93% 29.67 in 10.0 mi NNE 12.7 mph 18.4 mph N/A   Scattered Clouds
4:55 AM 32.0 °F 21.6 °F 30.2 °F 93% 29.66 in 10.0 mi NNE 15.0 mph 19.6 mph N/A   Scattered Clouds
5:15 AM 32.0 °F 21.2 °F 30.2 °F 93% 29.66 in 10.0 mi NNE 16.1 mph 19.6 mph N/A   Scattered Clouds
5:35 AM 32.0 °F 21.2 °F 30.2 °F 93% 29.66 in 10.0 mi NNE 16.1 mph - N/A   Clear
5:55 AM 32.0 °F 21.6 °F 30.2 °F 93% 29.66 in 10.0 mi NE 15.0 mph 19.6 mph N/A   Scattered Clouds
6:15 AM 32.0 °F 22.1 °F 28.4 °F 87% 29.66 in 10.0 mi NE 13.8 mph 20.7 mph N/A   Mostly Cloudy
6:31 AM 32.0 °F 22.1 °F 28.4 °F 87% 29.66 in 10.0 mi NE 13.8 mph - N/A   Scattered Clouds
6:51 AM 32.0 °F 22.1 °F 28.4 °F 87% 29.66 in 10.0 mi NE 13.8 mph 19.6 mph N/A   Mostly Cloudy
7:11 AM 32.0 °F 21.6 °F 30.2 °F 93% 29.66 in 10.0 mi NE 15.0 mph 23.0 mph N/A   Overcast
7:31 AM 33.8 °F 22.8 °F 28.4 °F 81% 29.67 in 10.0 mi NE 18.4 mph - N/A   Overcast
7:51 AM 33.8 °F 23.2 °F 28.4 °F 81% 29.68 in 10.0 mi NE 17.3 mph 26.5 mph N/A   Overcast
8:11 AM 33.8 °F 22.5 °F 28.4 °F 81% 29.68 in 10.0 mi NE 19.6 mph - N/A   Overcast
8:31 AM 33.8 °F 22.8 °F 26.6 °F 75% 29.68 in 10.0 mi NNE 18.4 mph 21.9 mph N/A   Overcast
8:51 AM 33.8 °F 23.2 °F 28.4 °F 81% 29.68 in 10.0 mi NNE 17.3 mph 21.9 mph N/A   Overcast
9:11 AM 33.8 °F 23.5 °F 26.6 °F 75% 29.69 in 10.0 mi NNE 16.1 mph 26.5 mph N/A   Overcast
9:31 AM 33.8 °F 23.2 °F 26.6 °F 75% 29.69 in 10.0 mi NNE 17.3 mph 23.0 mph N/A   Overcast
9:51 AM 33.8 °F 21.9 °F 28.4 °F 81% 29.70 in 7.0 mi NNE 21.9 mph 28.8 mph N/A   Overcast
10:11 AM 33.8 °F 23.2 °F 32.0 °F 93% 29.70 in 10.0 mi NNE 17.3 mph 23.0 mph N/A   Overcast
10:31 AM 33.8 °F 22.8 °F 30.2 °F 87% 29.70 in 10.0 mi NE 18.4 mph 23.0 mph N/A   Overcast
10:52 AM 33.8 °F 22.8 °F 30.2 °F 87% 29.71 in 10.0 mi NNE 18.4 mph 26.5 mph N/A   Overcast
11:12 AM 35.6 °F 24.8 °F 32.0 °F 87% 29.71 in 10.0 mi NNE 19.6 mph 25.3 mph N/A   Overcast
11:32 AM 35.6 °F 25.2 °F 30.2 °F 81% 29.71 in 10.0 mi NNE 18.4 mph 25.3 mph N/A   Overcast
11:52 AM 35.6 °F 25.5 °F 32.0 °F 87% 29.72 in 10.0 mi NNE 17.3 mph 23.0 mph N/A   Overcast
12:12 PM 33.8 °F 21.6 °F 32.0 °F 93% 29.72 in 10.0 mi NNE 23.0 mph 29.9 mph N/A   Overcast
12:32 PM 33.8 °F 23.5 °F 32.0 °F 93% 29.73 in 10.0 mi NNE 16.1 mph 26.5 mph N/A   Overcast
12:52 PM 33.8 °F 22.2 °F 32.0 °F 93% 29.73 in 10.0 mi NNE 20.7 mph 29.9 mph N/A   Overcast
1:12 PM 33.8 °F 21.6 °F 32.0 °F 93% 29.73 in 10.0 mi NNE 23.0 mph 28.8 mph N/A   Overcast
1:32 PM 33.8 °F 21.9 °F 32.0 °F 93% 29.73 in 10.0 mi NNE 21.9 mph 28.8 mph N/A   Overcast
1:52 PM 35.6 °F 24.2 °F 32.0 °F 87% 29.73 in 10.0 mi NNE 21.9 mph 27.6 mph N/A   Overcast
2:13 PM 35.6 °F 23.4 °F 32.0 °F 87% 29.73 in 10.0 mi NNE 25.3 mph 29.9 mph N/A   Overcast
2:33 PM 35.6 °F 24.5 °F 32.0 °F 87% 29.74 in 10.0 mi NNE 20.7 mph 31.1 mph N/A   Overcast
2:53 PM 37.4 °F 26.4 °F 32.0 °F 81% 29.74 in 10.0 mi NNE 23.0 mph 32.2 mph N/A   Overcast
3:13 PM 37.4 °F 26.6 °F 32.0 °F 81% 29.74 in 10.0 mi NNE 21.9 mph 33.4 mph N/A   Mostly Cloudy
3:33 PM 37.4 °F 25.9 °F 32.0 °F 81% 29.75 in 10.0 mi NNE 25.3 mph 33.4 mph N/A   Mostly Cloudy
3:53 PM 37.4 °F 25.9 °F 32.0 °F 81% 29.76 in 10.0 mi NNE 25.3 mph 28.8 mph N/A   Scattered Clouds
4:13 PM 39.2 °F 29.0 °F 32.0 °F 75% 29.76 in 10.0 mi NNE 21.9 mph 29.9 mph N/A   Scattered Clouds
4:34 PM 37.4 °F 27.2 °F 32.0 °F 81% 29.77 in 10.0 mi NE 19.6 mph 28.8 mph N/A   Scattered Clouds
4:54 PM 37.4 °F 26.9 °F 32.0 °F 81% 29.77 in 10.0 mi NE 20.7 mph 29.9 mph N/A   Scattered Clouds
5:14 PM 37.4 °F 26.6 °F 32.0 °F 81% 29.78 in 10.0 mi NNE 21.9 mph 31.1 mph N/A   Clear
5:34 PM 37.4 °F 27.2 °F 32.0 °F 81% 29.79 in 10.0 mi NE 19.6 mph 26.5 mph N/A   Clear
5:54 PM 37.4 °F 27.5 °F 32.0 °F 81% 29.80 in 10.0 mi NNE 18.4 mph 27.6 mph N/A   Clear
6:14 PM 37.4 °F 27.5 °F 32.0 °F 81% 29.81 in 10.0 mi NE 18.4 mph 23.0 mph N/A   Clear
6:34 PM 37.4 °F 27.8 °F 30.2 °F 75% 29.81 in 10.0 mi NE 17.3 mph 26.5 mph N/A   Scattered Clouds
6:54 PM 37.4 °F 27.8 °F 30.2 °F 75% 29.82 in 10.0 mi NE 17.3 mph 23.0 mph N/A   Overcast
7:14 PM 35.6 °F 27.1 °F 30.2 °F 81% 29.83 in 10.0 mi NE 12.7 mph - N/A   Overcast
7:34 PM 35.6 °F 26.6 °F 30.2 °F 81% 29.84 in 10.0 mi NE 13.8 mph - N/A   Overcast
7:54 PM 35.6 °F 27.5 °F 28.4 °F 75% 29.85 in 10.0 mi NE 11.5 mph - N/A   Overcast
8:15 PM 35.6 °F 28.6 °F 30.2 °F 81% 29.86 in 10.0 mi NNE 9.2 mph - N/A   Overcast
8:35 PM 35.6 °F 29.9 °F 30.2 °F 81% 29.86 in 10.0 mi NNE 6.9 mph - N/A   Overcast
8:55 PM 35.6 °F 30.7 °F 30.2 °F 81% 29.88 in 10.0 mi North 5.8 mph - N/A   Overcast
9:15 PM 35.6 °F 31.7 °F 30.2 °F 81% 29.89 in 10.0 mi NNW 4.6 mph - N/A   Overcast
9:35 PM 33.8 °F 29.6 °F 30.2 °F 87% 29.89 in 10.0 mi NW 4.6 mph - N/A   Overcast
9:55 PM 33.8 °F 29.6 °F 30.2 °F 87% 29.90 in 10.0 mi NW 4.6 mph - N/A   Overcast
10:15 PM 35.6 °F 29.9 °F 30.2 °F 81% 29.90 in 10.0 mi NNW 6.9 mph - N/A   Overcast
10:35 PM 35.6 °F 29.2 °F 28.4 °F 75% 29.91 in 10.0 mi NNW 8.1 mph - N/A   Overcast
10:55 PM 35.6 °F 28.6 °F 28.4 °F 75% 29.91 in 10.0 mi NNW 9.2 mph - N/A   Overcast
11:16 PM 35.6 °F 29.2 °F 28.4 °F 75% 29.92 in 10.0 mi NNW 8.1 mph - N/A   Overcast
11:31 PM 35.6 °F 29.2 °F 28.4 °F 75% 29.92 in 10.0 mi NNW 8.1 mph - N/A   Overcast
11:51 PM 35.6 °F 29.2 °F 28.4 °F 75% 29.93 in 10.0 mi NNW 8.1 mph - N/A   Overcast